Poplar Bluff, MO

1:43 AM CDT on August 22, 2017 (GMT -0500)
Poplar Bluff Municipal

Weather History for KPOF - November, 2014

Change the Weather History Date:

Saturday, November 22, 2014

  Actual Average Record
Temperature  
Mean Temperature 50 °F -  
Max Temperature 64 °F 54 °F 78 °F (1931)
Min Temperature 37 °F 35 °F 10 °F (1964)
Degree Days  
Heating Degree Days 14    
Moisture  
Dew Point 42 °F    
Average Humidity 74    
Maximum Humidity 93    
Minimum Humidity 48    
Precipitation  
Precipitation 0.02 in - - ()
Sea Level Pressure  
Sea Level Pressure 30.12 in    
Wind  
Wind Speed 4 mph (South)    
Max Wind Speed 16 mph    
Max Gust Speed 24 mph    
Visibility 8 miles    
Events Rain    
Averages and records for this station are not official NWS values.
T = Trace of Precipitation, MM = Missing Value Source: NWS Daily Summary

Daily Weather History Graph

Daily Weather History Graph

Search for Another Location

Airport or City:

Trip Planner

Search our weather history database for the weather conditions in past years. The results will help you decide how hot, cold, wet, or windy it might be!

Date:

Astronomy

Nov. 22, 2014 Rise Set
Actual Time 6:46 AM CST 4:48 PM CST
Civil Twilight 6:18 AM CST 5:16 PM CST
Nautical Twilight 5:46 AM CST 5:47 PM CST
Astronomical Twilight 5:15 AM CST 6:18 PM CST
Moon 6:43 AM CST 5:18 PM CST
Length of Visible Light 10h 57m
Length of Day
10h 01m
New Moon, 0% of the Moon is Illuminated
Nov 22
New Moon
Nov 29
First Quarter
Dec 6
Full
Dec 14
Last Quarter
Dec 21
New

Hourly Weather History & Observations

Time (CST) Temp. Windchill Dew Point Humidity Pressure Visibility Wind Dir Wind Speed Gust Speed Precip Events Conditions
12:53 AM 39.9 °F - 37.0 °F 89% 30.25 in 4.0 mi Calm Calm - N/A   Mostly Cloudy
1:22 AM 37.9 °F - 36.0 °F 93% 30.23 in 2.5 mi Calm Calm - N/A   Mostly Cloudy
1:35 AM 39.0 °F - 37.0 °F 93% 30.23 in 3.0 mi Calm Calm - N/A   Mostly Cloudy
1:53 AM 39.9 °F - 37.0 °F 89% 30.24 in 4.0 mi Calm Calm - N/A   Overcast
2:53 AM 37.9 °F 34.4 °F 35.1 °F 89% 30.24 in 7.0 mi NNW 4.6 mph - N/A   Scattered Clouds
3:53 AM 39.0 °F - 36.0 °F 89% 30.23 in 4.0 mi Calm Calm - N/A   Overcast
4:53 AM 39.0 °F - 36.0 °F 89% 30.22 in 4.0 mi Calm Calm - N/A   Mostly Cloudy
5:53 AM 42.1 °F - 37.9 °F 85% 30.23 in 6.0 mi Calm Calm - N/A   Overcast
6:53 AM 43.0 °F - 39.9 °F 89% 30.23 in 6.0 mi Calm Calm - 0.00 in Rain Light Rain
7:53 AM 46.9 °F - 43.0 °F 86% 30.21 in 7.0 mi SSE 5.8 mph - 0.00 in   Overcast
8:53 AM 53.1 °F - 46.9 °F 80% 30.20 in 10.0 mi South 10.4 mph - N/A   Overcast
9:53 AM 55.0 °F - 46.9 °F 74% 30.20 in 10.0 mi South 10.4 mph - 0.01 in   Overcast
10:53 AM 60.1 °F - 48.0 °F 64% 30.17 in 10.0 mi South 16.1 mph - N/A   Scattered Clouds
11:53 AM 61.0 °F - 46.0 °F 58% 30.13 in 10.0 mi South 16.1 mph 24.2 mph N/A   Clear
12:53 PM 62.1 °F - 46.0 °F 56% 30.10 in 10.0 mi SSW 9.2 mph - N/A   Overcast
1:53 PM 64.0 °F - 46.0 °F 52% 30.07 in 10.0 mi SW 10.4 mph - N/A   Overcast
2:53 PM 62.1 °F - 44.1 °F 52% 30.04 in 10.0 mi SSW 8.1 mph - N/A   Partly Cloudy
3:53 PM 62.1 °F - 42.1 °F 48% 30.03 in 10.0 mi South 5.8 mph - N/A   Mostly Cloudy
4:53 PM 57.0 °F - 46.0 °F 67% 30.02 in 10.0 mi South 5.8 mph - 0.01 in   Overcast
5:53 PM 57.0 °F - 46.0 °F 67% 30.03 in 10.0 mi SW 3.5 mph - N/A   Overcast
6:53 PM 55.9 °F - 45.0 °F 67% 30.03 in 10.0 mi SSW 3.5 mph - N/A   Overcast
7:53 PM 53.1 °F - 45.0 °F 74% 29.99 in 10.0 mi South 3.5 mph - N/A   Clear
8:53 PM 54.0 °F - 43.0 °F 66% 29.98 in 10.0 mi South 3.5 mph - N/A   Scattered Clouds
9:53 PM 50.0 °F - 41.0 °F 71% 29.95 in 10.0 mi SSE 6.9 mph - N/A   Clear
10:53 PM 48.9 °F - 39.9 °F 71% 29.93 in 10.0 mi SSE 8.1 mph - N/A   Clear
11:53 PM 50.0 °F - 39.0 °F 66% 29.91 in 10.0 mi SSE 8.1 mph - N/A   Clear